STARLINK-1672, 46537

Orbit data source: Space-Track

STARLINK-1672, 46537 is a payload satellite owned by SpaceX/Seattle (US) in LEO that was launched on Tue, 06 Oct 2020 UTC via an FALCON 9 launch vehicle from the Air Force Eastern Test Range (AFETR). Payload-class satellites include a variety of spacecraft equipped with specific instruments for various scientific and technological missions. These include communications satellites like Starlink; space stations such as the ISS; scientific satellites like the Hubble; Earth observation satellites from companies like Planet Labs, Umbra, and HawkEye 360; GPS; miniature CubeSats for education and research; and military/defense satellites.

Loading next visibility...
Identifier
46537, 2020-070F
Orbit
LEO
Country
Flag of USUS
Related business
Manufacturer
SpaceX/Seattle
Mission
Operational Commercial Communications
Bus & Motor
STARLINK, Unknown motor
Mass
260 kg wet, ~248 kg dry
Launch date (UTC)
2020-10-06 (5 years ago)
Launch vehicle
FALCON 9
Launch site
Air Force Eastern Test Range (AFETR)
Object type
Payload
Rocket body
Debris
Shape & HBR
Box + 1 Pan, 10.1 m
Radar Cross Section
13.562 m², Large (>1 m²)

Expand to show TLE details & history
Last TLE update: 5 hours ago

TLE from 5 hours ago
0 STARLINK-1672
1 46537U 20070F   25291.16668980  .01037880  00000-0  48554-1 0  9991
2 46537  53.0542  96.2439 0001353  89.9889 304.3005 15.16698178  5868
Epoch: 2025-10-18T04:00Z
TLE epoch observation values (Epoch: 2025-10-18T04:00:01.998Z)
Latitude
26.82825°
Longitude
31.56063°
Altitude
516.512 km
Speed
7.609 km/s
True Right ascension
07h 53m 52s
True Declination
26° 41' 07"
Sunlit
Object was in daylight at epoch
Visualization orbit readout
Latitude
Unknown
Longitude
Unknown
Altitude
Unknown
Speed
Unknown
Apparent Right ascension
Unknown
Apparent Declination
Unknown
Sunlit
N/A
Visualization observer readout
Local Sidereal Time
04:00:08
Azimuth
Unknown
Elevation
Unknown
Doppler factor
Unknown
Orbital elements
Apogee altitude
517.033 km
Perigee altitude
515.167 km
Semi-major axis
6,894.237 km
Eccentricity
0.00014
Inclination
53.0542°
RAAN
96.2439°
Arg. of periapsis
89.9889°
True anomaly
304.28769°
Mean anomaly
304.3005°
Eccentric anomaly
304.2941°
Mean motion
3.79152 °/min
Orbital period
94.95 mins
BSTAR
0.048554
Loading maneuver chart data...
Computing Atmospheric mass density...
Loading historical data...
Loading historical data...
Loading historical data...
Loading historical data...
Loading historical data...
Loading historical data...
Loading historical data...

Documentation

Showing up to 5 results
|